Overview Statistics Trail Chart Weather Telemetry Raw packets
 

This is the latest recevied weather packets stored in our database for station/object KF7SOJ. If no packets are shown the sender has not sent any weather packets the latest 10 day(s).

<< 72 73 74 75 76 77 78 >>
Time Temp. Humidity Pressure Rain* Wind** Luminosity Snow
1788097255 16.67° C 67% 929 hPa 0 mm - 54 W/m² -
1788096951 16.11° C 67% 929 hPa 0 mm - 63 W/m² -
1788096646 16.11° C 67% 928.9 hPa 0 mm - 40 W/m² -
1788096342 16.11° C 67% 929.1 hPa 0 mm - 41 W/m² -
1788096037 16.11° C 67% 929 hPa 0 mm - 40 W/m² -
1788095736 16.11° C 67% 929.1 hPa 0 mm - 30 W/m² -
1788095431 16.11° C 67% 929 hPa 0 mm - 22 W/m² -
1788095126 16.11° C 67% 928.9 hPa 0 mm - 21 W/m² -
1788094822 16.11° C 68% 929 hPa 0 mm - 18 W/m² -
1788094516 16.11° C 68% 928.9 hPa 0 mm - 11 W/m² -
1788094214 15.56° C 69% 928.9 hPa 0 mm - 9 W/m² -
1788093909 16.11° C 70% 928.6 hPa 0 mm - 6 W/m² -
1788093605 16.11° C 69% 928.7 hPa 0 mm - 4 W/m² -
1788093302 15.56° C 71% 928.8 hPa 0 mm - 3 W/m² -
1788093000 16.11° C 72% 928.8 hPa 0 mm - 2 W/m² -
1788092698 15.56° C 72% 928.6 hPa 0 mm - 1 W/m² -
1788092394 15.56° C 73% 928.5 hPa 0 mm - 1 W/m² -
1788092090 15.56° C 73% 928.5 hPa 0 mm - 0 W/m² -
1788091789 15.56° C 75% 928.6 hPa 0 mm - 0 W/m² -
1788091484 15° C 78% 928.4 hPa 0 mm - 0 W/m² -
1788091181 15.56° C 77% 927.9 hPa 0 mm - 0 W/m² -
1788090877 15.56° C 76% 927.7 hPa 0 mm - 0 W/m² -
1788090572 15.56° C 77% 927.9 hPa 0 mm - 0 W/m² -
1788090269 15.56° C 77% 928 hPa 0 mm - 0 W/m² -
1788089980 15.56° C 78% 928.3 hPa 0 mm - 0 W/m² -

* Rain latest hour (hover to see other rain measurements)
** Current wind speed in m/s (hover to see current wind gust speed)